Location: Korczew
(51.3586°N, 19.4491°E)
Time: 22:02:00
(UTC+00:00)

Cosmos 1733 - Pass Details

Date: 19 May 2025
Orbit: 375 x 381 km, 82.5° (Epoch: 15 June)

Event Time Altitude Azimuth Distance (km) Brightness Sun altitude
Rises 20:31:54 0° 339° (NNW) 2,310 8.4 -13.5°
Reaches altitude 10° 20:34:08 10° 325° (NW) 1,445 6.9 -13.6°
Maximum altitude 20:36:45 25° 269° (W) 857 4.6 -13.8°
Enters shadow 20:39:16 10° 213° (SSW) 1,404 5.1 -14.0°
